Weather in Kishi

Nigeria     9°05′09″N   3°51′31″E
temp.,
°C
wind,
m/s
gust,
m/s
humid.,
%
clouds,
%
prec.,
mm/h
press.,
hPa
HPBL,
m
16 may, sun
sun1601:00+23ese2393100 1.4 1013110
04:00+22ssw41090100 1.3 1009281
07:00+22sw1182100 1.3 101056
10:00+30sse1250100 0.0 1011529
13:00+36se243410 0.0 10091967
16:00+37se453286 0.0 10062589
19:00+31s37555 0.0 1006274
22:00+22s2988100 1.9 1012283
17 may, mon
mon1701:00+22s4118687 1.9 1011336
04:00+22ssw41390100 0.0 1009390
07:00+23ssw3109152 0.0 1011432
10:00+29s446188 0.0 1013889
13:00+35s33405 0.0 10101804
16:00+37sse36326 0.0 10072900
19:00+31sse595582 0.0 1009516
22:00+27s51173100 0.0 1011512
18 may, tue
tue1801:00+25ssw5118429 0.0 1011497
04:00+23ssw4118936 0.0 1010493
07:00+24ssw4108694 0.0 1012565
10:00+29sw45615 0.0 1013913
13:00+35s33405 0.0 10111897
16:00+37s35321 0.0 10082640
19:00+31sse59525 0.0 1009507
22:00+27ssw4107351 0.0 1012534
19 may, wed
wed1901:00+26s497798 0.0 1012503
04:00+24ssw5118985 0.0 1011484
07:00+24sw4988100 0.0 1012507
10:00+28ssw346795 0.0 1014817
13:00+35s333812 0.0 10111735
16:00+37s453362 0.0 10082678
19:00+30s595686 0.0 1009439
22:00+27ssw4107388 0.1 1012453
20 may, thu
thu2001:00+25ssw511825 0.1 1011427
04:00+24sw4118662 0.0 1010516
07:00+23sw4108820 0.0 1012473
10:00+29ssw56618 0.0 1014948
13:00+34s44442 0.0 10121549
16:00+36sse333520 0.0 10082523
19:00+29s59593 0.0 1009508
22:00+26s511741 0.0 1012512